Погода в Казачинске

Погода в Казачинске : погода сейчас, прогноз погоды и архив. Всё, что Вы хотите узнать о погоде в Казачинске!

Хотите узнать прогноз погоды в Казачинске? Тогда Вам сюда: Погода в Казачинске

Поиск расширенной информации на нашем сайте:

Другие новости

Новости СМИ2

Главная страница сайта

Новости сайта

03.07.2017

Напоминаем, что на нашем специализированном сайте Метеоцентр.Азия вы можете получить высокодетализированные автоматические прогнозы погоды по пунктам России, СНГ и мира в авиационном формате (включающие направление и скорость ветра, видимость, явления погоды, количество и форму облачности, нижнюю и верхнюю границу облачности).

Рекомендуем: Только отдых в тунисе можно назвать полноценным отдыхом души и тела.

Погода в Казачинске - сегодня

Время (UTC), дата Ветер
(°,м/с) 
Видим.   Явления Облачность Т
(°С)
Тd
(°С)
f(%) Тe
(°С)
Pmin
(гПа)
dP
(гПа)
Po
(мм)
O2
(г/м3)
Тmin Tmax R s Состояние
почвы
06 21.11.17 020 (С) 4000 м  ливневой снег  10/8 600 м кучево-дожд., верхняя 
[Cb cap|Cs]
-11.7 -16.2 69 -14  1025  1.8  734  310           
09 21.11.17 340 (С) 20000 м  {ливн. осадки}  8/5 600 м кучево-дожд., верхняя 
[Cb cap|Ci fib]
-14.4 -21.4 55 -17  1028.3  2.6  736  315           
12 21.11.17 340 (С) н/о  {ливн. осадки}  3/0 600 м верхняя 
[Ci sp]
-17 -22.9 60 -21  1031.5  2.7  738  319    -10.2  0.3     
15 21.11.17 тихо ()   н/о    3/0 верхняя 
[Ci sp]
-22.7 -25.3 79 -23  1034.3  1.5  739  326           
18 21.11.17 010 (С) н/о    3/0 верхняя 
[Ci sp]
-27 -29.5 79 -28  1035.5  0.3  739  332           
21 21.11.17 тихо ()   н/о    ясно 
-29.1 -31.6 79 -29  1036.4  0.4  740  335           
00 22.11.17 360 (С) н/о    ясно 
-33.4 -35.6 81 -34  1037  -0.3  739  341  -33.4      22  равномерный
сухой снег
100% 
03 22.11.17 060 (СВ) 20000 м    ясно 
-30.1 -34.2 67 -31  1035.7  -0.6  739  337  -33.7         
06 22.11.17 тихо ()   20000 м    ясно 
-23.2 -27 71 -23  1032.8  -1.4  738  327           
09 22.11.17 010 (С) 20000 м    ясно 
-25.9 -29.4 72 -26  1032.3  -1  737  330           
12 22.11.17 тихо ()   н/о    ясно 
-30.9 -33.9 75 -31  1034.4  738  337    -22.3       
15 22.11.17 тихо ()   н/о    ясно 
-33.2 -36.3 74 -33  1035.5  0.6  738  341           
18 22.11.17 тихо ()   н/о    ясно 
-35.1 -38 75 -35  1036.6  0.6  739  344           
21 22.11.17 тихо ()   н/о    ясно 
-36.2 -39 76 -36  1037.4  0.6  739  345           
00 23.11.17 тихо ()   н/о    6/0 верхняя 
[Ci fib]
-37.4 -40.1 76 -37  1038.1  0.4  740  347  -37.4      22  равномерный
сухой снег
100% 
03 23.11.17 тихо ()   20000 м    8/0 верхняя 
[Ci fib]
-32.1 -35 75 -32  1037.6  0.6  740  340  -37.5         
06 23.11.17 тихо ()   20000 м    9/3 600 м кучево-дожд., верхняя 
[Cb cap|Ci sp]
-26.8 -31.3 66 -27  1036.1  -0.4  740  332           
09 23.11.17 тихо ()   20000 м    4/0 верхняя 
[Ci fib]
-28.4 -32.3 69 -28  1036.6  0.2  740  335           
12 23.11.17 тихо ()   н/о    ясно 
-31.7 -34.8 74 -32  1037.2  740  339    -26.2       
15 23.11.17 тихо ()   н/о    ясно 
-33.1 -36 75 -33  1036.8  -0.8  739  341           
18 23.11.17 190 (Ю) н/о  слаб. ливневой снег  10/10 600 м кучево-дожд. 
[Cb cap]
-30.4 -33.4 75 -31  1035.6  -0.5  739  337           
21 23.11.17 180 (Ю) н/о  слаб. ливневой снег  10/10 600 м кучево-дожд. 
[Cb cap]
-28.7 -31.2 79 -29  1034.5  -0.8  738  334           
00 24.11.17 180 (Ю) н/о  слаб. ливневой снег  10/10 600 м кучево-дожд. 
[Cb cap]
-27.3 -30.5 74 -28  1034  -0.2  738  332  -33.9    0.3  22  равномерный
сухой снег
100% 
03 24.11.17 тихо ()   10 км  слаб. ливневой снег  10/10 600 м кучево-дожд. 
[Cb cap]
-25.5 -29.3 70 -26  1033.4  -0.2  738  330           
06 24.11.17 тихо ()   10 км  слаб. ливневой снег  10/10 600 м кучево-дожд. 
[Cb cap]
-22.7 -26.6 70 -23  1032  -0.7  737  326           
Время (UTC), дата Ветер
(°,м/с) 
Видим.   Явления Облачность Т
(°С)
Тd
(°С)
f(%) Тe
(°С)
Pmin
(гПа)
dP
(гПа)
Po
(мм)
O2
(г/м3)
Тmin Tmax R s Состояние
почвы

Для получения пояснительной информации подведите курсор к названию столбца.

ПОГОДА в Казачинске - архив

Всё, что Вы хотите узнать о погоде в Казачинске - удобно и подробно!

Выберите нужную дату (начиная с 1 января 2015* года) и нажмите кнопку "Найти".
Будут отображены архивные сводки погоды по пункту Казачинск, начиная с указанной даты.


Отображать данные в формате CSV (для использования в таблицах Excel)


Внимание! Наш архив погоды предназначен исключительно для личного некоммерческого использования в познавательных целях. Если Вам необходимы официальные справки о состоянии погоды (для производственных, юридических, коммерческих и т.п. целей), обращайтесь в органы Росгидромета.

*Примечание: данная дата относится к архиву по метеостанциям СССР (Россия, СНГ, Балтия).
Архив по метеостанциям Зарубежной Европы и Азии (кроме Китая) хранится 10 дней, по другим регионам земного шара (Китай, Африка, Америка, Австралия, Океания) - 1 день.

Казачинск - район местоположения метеостанции


Название, широта, долгота, высота метеостанции:
Казачинск 56.3°ш. 107.6°д. 362 м над ур. моря [Российская Федерация]

Дополнительная информация

В oтличие oт бoльшинства пoгoдных сайтoв мы публикуем пoдрoбную метеoинфoрмацию в детальнoм прoфессиoнальнoм фoрмате.

Характеристики температуры и влажнoсти вoздуха измеряются на высoте 2 м в тени вдали oт зданий и деревьев.
Скoрoсть ветра измеряется на высoте 10 м (на урoвне рoста челoвека скoрoсть ветра ниже в 1.5-2 раза). Если метеoстанция нахoдится в гoрoде или в лесу, тo скoрoсть ветра занижена на 2-4 м/с пo сравнению с oткрытым местoм. Скoрoсть ветра над акватoриями крупных рек и oзёр, а также на вершинах хoлмoв на 2-5 м/с выше, чем в oбычных услoвиях.
Атмoсфернoе давление в разных тoчках местнoсти мoжет значительнo oтличаться oт давления на метеoстанции, в зависимoсти oт услoвий рельефа (при пoдъёме на 10 м давление пoнижается примернo на 1 мм рт.ст.).